Weather observations for the past three days for
Unalakleet
| Date | Time (akdt) | Wind (mph) | Vis. (mi.) | Weather | Sky Cond. | Temperature (ºF) | Relative Humidity | Wind Chill (°F) | Heat Index (°F) | Pressure | Precipitation (in) | ||||||
|---|---|---|---|---|---|---|---|---|---|---|---|---|---|---|---|---|---|
| Air | Dwpt | 6 hour | altimeter (in) | sea level (mb) | 1 hr | 3 hr | 6 hr | ||||||||||
| Max. | Min. | ||||||||||||||||
| 10 | 07:56 | SW 3 | 10.00 | Overcast | OVC006 | 33.1 | 30.9 | 92% | 29.45 | 997.4 | |||||||
| 10 | 06:56 | SW 5 | 10.00 | Overcast | OVC006 | 32 | 30.9 | 96% | 28 | 29.44 | 997.4 | ||||||
| 10 | 05:56 | S 7 | 10.00 | Overcast | OVC004 | 32 | 30.9 | 96% | 26 | 29.44 | 997.2 | ||||||
| 10 | 04:56 | S 3 | 10.00 | Overcast | BKN021 OVC026 | 32 | 30.9 | 96% | 29.44 | 997.2 | |||||||
| 10 | 03:56 | NE 3 | 10.00 | Overcast | OVC022 | 33.1 | 32 | 39.9 | 33.1 | 96% | 29.44 | 997.3 | |||||
| 10 | 02:56 | NW 5 | 10.00 | Light Rain | OVC024 | 34 | 32 | 92% | 30 | 29.44 | 997.4 | ||||||
| 10 | 01:56 | NW 3 | 10.00 | Unknown Precip | OVC026 | 35.1 | 32 | 89% | 29.45 | 997.5 | |||||||
| 10 | 00:56 | Calm | 10.00 | Light Rain | OVC035 | 37 | 32 | 82% | 29.45 | 997.7 | |||||||
| 09 | 23:56 | NE 7 | 10.00 | Overcast | FEW043 BKN060 OVC075 | 39 | 30 | 70% | 35 | 29.45 | 997.5 | ||||||
| 09 | 22:56 | NE 9 | 10.00 | Overcast | FEW050 OVC065 | 39.9 | 28.9 | 65% | 34 | 29.44 | 997.4 | ||||||
| 09 | 21:56 | NW 9 | 10.00 | Overcast | OVC044 | 35.1 | 30 | 43 | 35.1 | 82% | 29 | 29.44 | 997.2 | ||||
| 09 | 20:56 | NW 9 | 10.00 | Overcast | OVC044 | 36 | 28.9 | 76% | 30 | 29.44 | 997.3 | ||||||
| 09 | 19:56 | NE 8 | 10.00 | Overcast | OVC046 | 42.1 | 26.1 | 53% | 38 | 29.45 | 997.5 | ||||||
| 09 | 18:56 | N 8 | 9.00 | Overcast | OVC042 | 42.1 | 27 | 55% | 38 | 29.45 | 997.6 | ||||||
| 09 | 17:56 | NE 8 | 10.00 | Overcast | SCT040 OVC047 | 41 | 28 | 60% | 36 | 29.46 | 997.8 | ||||||
| 09 | 16:56 | N 14 | 10.00 | Overcast | BKN035 OVC048 | 41 | 28 | 60% | 34 | 29.47 | 998.3 | ||||||
| 09 | 15:56 | NE 18 G 22 | 10.00 | Overcast | OVC040 | 41 | 27 | 41 | 28 | 57% | 33 | 29.48 | 998.6 | ||||
| 09 | 14:56 | Calm | 10.00 | Mostly Cloudy | BKN041 BKN048 | 34 | 27 | 76% | 29.5 | 999.2 | |||||||
| 09 | 13:56 | SW 9 | 10.00 | Fair | CLR | 35.1 | 26.1 | 70% | 29 | 29.52 | 999.8 | ||||||
| 09 | 12:56 | W 7 | 10.00 | Partly Cloudy | SCT085 | 30 | 25 | 82% | 24 | 29.53 | 1000.4 | ||||||
| 09 | 11:56 | W 7 | 10.00 | Partly Cloudy | SCT070 | 30.9 | 25 | 79% | 25 | 29.55 | 1000.9 | ||||||
| 09 | 10:56 | SW 7 | 10.00 | Fair | CLR | 30.9 | 26.1 | 82% | 25 | 29.56 | 1001.3 | ||||||
| 09 | 09:56 | SW 6 | 10.00 | A Few Clouds | FEW033 | 28 | 26.1 | 28 | 21.9 | 92% | 22 | 29.58 | 1001.9 | ||||
| 09 | 08:56 | S 3 | 10.00 | A Few Clouds | FEW070 | 26.1 | 24.1 | 92% | 29.58 | 1002.2 | |||||||
| 09 | 07:56 | SE 5 | 10.00 | Fair | CLR | 23 | 21 | 92% | 18 | 29.59 | 1002.4 | ||||||
| 09 | 06:56 | Calm | 10.00 | Fair | CLR | 23 | 21 | 92% | 29.6 | 1002.6 | |||||||
| 09 | 05:56 | E 7 | 10.00 | Fair | CLR | 23 | 21 | 92% | 16 | 29.62 | 1003.2 | ||||||
| 09 | 04:56 | E 8 | 10.00 | Fair | CLR | 23 | 21 | 92% | 15 | 29.62 | 1003.4 | ||||||
| 09 | 03:56 | Calm | 10.00 | Partly Cloudy | SCT075 | 24.1 | 21 | 35.1 | 24.1 | 88% | 29.64 | 1003.9 | |||||
| 09 | 02:56 | NW 10 | 10.00 | Fair | CLR | 28 | 21 | 75% | 19 | 29.66 | 1004.6 | ||||||
| 09 | 01:56 | NW 10 | 10.00 | Fair | CLR | 28 | 23 | 81% | 19 | 29.67 | 1005.1 | ||||||
| 09 | 00:56 | NW 10 | 10.00 | A Few Clouds | FEW070 | 30 | 21.9 | 72% | 22 | 29.69 | 1005.7 | ||||||
| 08 | 23:56 | NW 8 | 10.00 | Fair | CLR | 30.9 | 23 | 72% | 24 | 29.71 | 1006.3 | ||||||
| 08 | 22:56 | NW 16 | 10.00 | Fair | CLR | 34 | 21.9 | 61% | 24 | 29.71 | 1006.5 | ||||||
| 08 | 21:56 | NW 15 | 10.00 | Fair | CLR | 35.1 | 25 | 36 | 33.1 | 67% | 26 | 29.72 | 1006.9 | ||||
| 08 | 20:56 | NW 16 | 10.00 | Fair | CLR | 35.1 | 27 | 72% | 26 | 29.75 | 1007.6 | ||||||
| 08 | 19:56 | NW 20 | 10.00 | Fair | CLR | 36 | 26.1 | 67% | 26 | 29.76 | 1008.2 | ||||||
| 08 | 18:56 | NW 20 | 10.00 | Fair | CLR | 36 | 26.1 | 67% | 26 | 29.79 | 1009.0 | ||||||
| 08 | 17:56 | NW 21 | 10.00 | Fair and Breezy | CLR | 36 | 27 | 70% | 26 | 29.81 | 1009.8 | ||||||
| 08 | 16:56 | NW 18 | 10.00 | Fair | CLR | 35.1 | 27 | 72% | 25 | 29.84 | 1010.6 | ||||||
| 08 | 15:56 | NW 17 | 10.00 | Fair | CLR | 35.1 | 27 | 35.1 | 24.1 | 72% | 26 | 29.86 | 1011.5 | ||||
| 08 | 14:56 | NW 20 | 10.00 | Fair | CLR | 34 | 27 | 76% | 23 | 29.88 | 1012.2 | ||||||
| 08 | 13:56 | NW 20 | 10.00 | Fair | CLR | 33.1 | 26.1 | 75% | 22 | 29.91 | 1013.0 | ||||||
| 08 | 12:56 | NW 16 | 10.00 | Fair | CLR | 30.9 | 26.1 | 82% | 21 | 29.93 | 1013.9 | ||||||
| 08 | 11:56 | NW 14 | 10.00 | Fair | CLR | 30 | 25 | 82% | 20 | 29.95 | 1014.6 | ||||||
| 08 | 10:56 | NW 5 | 10.00 | Fair | CLR | 27 | 19.9 | 75% | 22 | 29.98 | 1015.6 | ||||||
| 08 | 09:56 | SW 5 | 10.00 | Fair | CLR | 24.1 | 19.9 | 27 | 19.9 | 84% | 19 | 30 | 1016.3 | ||||
| 08 | 08:56 | W 5 | 10.00 | Fair | CLR | 23 | 19 | 85% | 18 | 30.01 | 1016.7 | ||||||
| 08 | 07:56 | Calm | 10.00 | Fair | CLR | 24.1 | 18 | 77% | 30.02 | 1017.0 | |||||||
| 08 | 06:56 | Calm | 10.00 | Fair | CLR | 21 | 16 | 81% | 30.03 | 1017.4 | |||||||
| 08 | 05:56 | Vrbl 5 | 10.00 | Fair | CLR | 21.9 | 17.1 | 82% | 16 | 30.04 | 1017.7 | ||||||
| 08 | 04:56 | NE 9 | 10.00 | Fair | CLR | 26.1 | 17.1 | 69% | 18 | 30.05 | 1017.8 | ||||||
| 08 | 03:56 | NE 9 | 10.00 | Fair | CLR | 26.1 | 17.1 | 34 | 21 | 69% | 18 | 30.05 | 1018.1 | ||||
| 08 | 02:56 | NE 6 | 10.00 | Fair | CLR | 26.1 | 18 | 71% | 20 | 30.06 | 1018.4 | ||||||
| 08 | 01:56 | NE 10 | 10.00 | Fair | CLR | 27 | 17.1 | 66% | 18 | 30.06 | 1018.4 | ||||||
| 08 | 00:56 | NE 9 | 10.00 | Fair | CLR | 28 | 18 | 66% | 20 | 30.07 | 1018.5 | ||||||
| 07 | 23:56 | N 7 | 10.00 | A Few Clouds | FEW047 | 27 | 21 | 78% | 20 | 30.07 | 1018.6 | ||||||
| 07 | 22:56 | NW 3 | 10.00 | A Few Clouds | FEW045 | 32 | 21.9 | 66% | 30.07 | 1018.6 | |||||||
| 07 | 21:56 | SE 6 | 5.00 | Light Rain | FEW022 SCT028 BKN036 | 35.1 | 21.9 | 35.1 | 28.9 | 59% | 31 | 30.06 | 1018.4 | ||||
| 07 | 20:56 | NW 14 | 10.00 | Mostly Cloudy | FEW041 SCT048 BKN060 | 32 | 23 | 69% | 23 | 30.06 | 1018.4 | ||||||
| 07 | 19:56 | NW 18 G 26 | 9.00 | Light Snow | OVC060 | 30.9 | 24.1 | 76% | 20 | 30.08 | 1018.8 | ||||||
| 07 | 18:56 | NW 18 | 10.00 | Overcast | BKN045 OVC049 | 30.9 | 23 | 72% | 20 | 30.08 | 1018.9 | ||||||
| 07 | 17:56 | NW 17 | 10.00 | Overcast | OVC049 | 30.9 | 23 | 72% | 20 | 30.1 | 1019.5 | ||||||
| 07 | 16:56 | NW 17 | 10.00 | Mostly Cloudy | BKN047 | 30 | 23 | 75% | 19 | 30.11 | 1019.9 | ||||||
| 07 | 15:56 | NW 14 | 10.00 | Mostly Cloudy | FEW039 BKN075 | 30 | 21.9 | 30 | 25 | 72% | 20 | 30.12 | 1020.4 | ||||
| 07 | 14:56 | NW 16 | 10.00 | Overcast | OVC075 | 28 | 21 | 75% | 17 | 30.13 | 1020.6 | ||||||
| 07 | 13:56 | NW 15 | 10.00 | Fair | CLR | 27 | 21.9 | 81% | 16 | 30.13 | 1020.7 | ||||||
| 07 | 12:56 | NW 13 | 10.00 | A Few Clouds | FEW075 | 27 | 21.9 | 81% | 17 | 30.13 | 1020.8 | ||||||
| 07 | 11:56 | NW 12 | 10.00 | Fair | CLR | 26.1 | 19.9 | 78% | 16 | 30.14 | 1020.9 | ||||||
| 07 | 10:56 | NW 10 | 10.00 | Fair | CLR | 26.1 | 19.9 | 78% | 17 | 30.14 | 1021.0 | ||||||
| 07 | 09:56 | NW 8 | 10.00 | Mostly Cloudy | BKN080 | 26.1 | 19.9 | 26.1 | 21 | 78% | 18 | 30.14 | 1021.1 | ||||
| 07 | 08:56 | NW 6 | 10.00 | Mostly Cloudy | BKN085 | 25 | 19 | 78% | 19 | 30.14 | 1020.8 | ||||||
| Date | Time (akdt) | Wind (mph) | Vis. (mi.) | Weather | Sky Cond. | Air | Dwpt | Max. | Min. | Relative Humidity | Wind Chill (°F) | Heat Index (°F) | altimeter (in) | sea level (mb) | 1 hr | 3 hr | 6 hr |
| 6 hour | |||||||||||||||||
| Temperature (ºF) | Pressure | Precipitation (in) | |||||||||||||||